FALCON 9 DEB (46595 NORAD) Tracking and Keplerian Element Data

This shows tracking and keplerian element data for the satellite.

Feedback or suggestion? Click here.




ElementValue
Catalog46595
NameFALCON 9 DEB
Epoch Orbit431
Epoch Day302.40685095
Epoch Year2020
RAAN330.0618
Inclination52.9864
Eccentricity0.0009427
Argument of Perigee43.6253
Mean Anonmoly316.5528
Mean Motion16.19627761
Decay Rate0.00990807
L11 46595U 20070BR 20302.40685095 .00990807 11823-4 51033-3 0 9999
L22 46595 52.9864 330.0618 0009427 43.6253 316.5528 16.19627761 4315

Live tracking and technical data element details for FALCON 9 DEB (NORAD 46595). FALCON 9 DEB can be tracked NOW for your location showing map with azimuth and elevation plus other details from your city location.

Track the satellite on the map from your city or location and see movement details for azimuth, elevation, latitude, longitude, range, height, and movement on the map or in text.







IsCatalogInMostPopularTable: catalog: 46595, numindb: 2
Update: records affected: 1



GetName: 46595 FALCON 9 DEB

Hit Count: updated at: Fri, 30 Oct 2020 01:42:50 GMT